Location: Nitra
(0.0000°N, 18.0833°E)
Time: 19:12:15
(UTC+02:00)

A-11 Canister half - Pass Details

Date: 01 April 2023
Orbit: 1526 x 1682 km, 47.3° (Epoch: 08 June)

Event Time Altitude Azimuth Distance (km) Brightness Sun altitude
Rises 11:45:04 0° 217° (SW) 4,850 11.5 72.8°
Reaches altitude 10° 11:48:10 10° 216° (SW) 3,881 11.1 73.5°
Maximum altitude 11:58:11 81° 129° (SE) 1,689 11.5 75.9°
Drops below altitude 10° 12:08:20 10° 43° (NE) 3,935 11.5 78.3°
Sets 12:11:30 0° 42° (NE) 4,920 11.8 79.0°
